Le nostre stazioni meteo in Italia

Pubblicità
Il mio iltempo24.it
Monte Scuro, Italia (16344): Temperatura & dewpoint: 10.02.2019 07:00:00 - 16.02.2019 07:00:00 (CET)Monte Scuro, Italia (16344): velocità del vento & gusts: 10.02.2019 07:00:00 - 16.02.2019 07:00:00 (CET)Monte Scuro, Italia (16344): direzione del vento: 10.02.2019 07:00:00 - 16.02.2019 07:00:00 (CET)Monte Scuro, Italia (16344): visibility: 10.02.2019 07:00:00 - 16.02.2019 07:00:00 (CET)Monte Scuro, Italia (16344): ore di luce: 10.02.2019 07:00:00 - 16.02.2019 07:00:00 (CET)
Data & Tempo tt [°C] td [°C] ff [km/h] ff [kn] fx [km/h] fx [kn] dd vv [km] sd [min]
16.02.2019 07:00:00 -3,0 -4,4 41 22 - - NO - -
16.02.2019 06:00:00 -3,0 -4,4 41 22 - - N - -
16.02.2019 05:00:00 -3,0 -30,0 46 25 - - N - -
16.02.2019 04:00:00 -3,0 -4,4 37 20 - - N - -
16.02.2019 03:00:00 -3,0 -4,4 46 25 - - ONO - -
16.02.2019 02:00:00 - - - - - - - - -
16.02.2019 01:00:00 - - - - - - - - -
16.02.2019 00:00:00 - - - - - - - - -
15.02.2019 23:00:00 -3,0 -4,3 28 15 - - NNO - -
15.02.2019 22:00:00 -3,0 -4,3 31 17 - - NNO - -
15.02.2019 21:00:00 -3,0 -4,3 48 26 - - NNO - -
15.02.2019 20:00:00 -3,0 -4,3 34 18 - - NNO - 0
15.02.2019 19:00:00 -3,0 -4,1 46 25 - - NNO - -
15.02.2019 18:00:00 -3,0 -4,1 46 25 - - N - -
15.02.2019 17:00:00 -1,8 -2,5 37 20 - - N - 0
15.02.2019 16:00:00 -1,8 -30,0 39 21 - - N - 0
15.02.2019 15:00:00 -1,2 -30,0 37 20 - - N - 0
15.02.2019 14:00:00 -1,0 -30,0 34 18 - - N - 0
15.02.2019 13:00:00 -1,0 -2,4 41 22 - - N 15 0
15.02.2019 12:00:00 -1,0 -2,4 46 25 - - NNE 15 0
15.02.2019 11:00:00 -1,4 -2,5 28 15 - - O - 0
15.02.2019 10:00:00 -1,8 -2,8 28 15 - - ENE - 0
15.02.2019 09:00:00 -1,8 -2,8 29 16 - - ENE - 0
15.02.2019 08:00:00 -1,6 -2,4 39 21 - - NE - 0
15.02.2019 07:00:00 -1,6 -2,4 34 18 - - ENE - 0
15.02.2019 06:00:00 -1,0 -2,0 26 14 - - NE - -
15.02.2019 05:00:00 -1,0 -1,7 28 15 - - NE - -
15.02.2019 04:00:00 -1,0 -2,1 28 15 - - ENE 15 -
15.02.2019 03:00:00 -1,0 -2,4 31 17 - - ENE 10 -
15.02.2019 02:00:00 -1,0 -3,2 31 17 - - E 15 -
15.02.2019 01:00:00 -1,0 -4,5 29 16 - - ENE 15 -
15.02.2019 00:00:00 0,0 -5,2 24 13 - - ENE 15 -
14.02.2019 23:00:00 0,4 -6,2 18 10 - - ENE 15 -
14.02.2019 22:00:00 1,4 -8,4 13 7 - - N 15 -
14.02.2019 21:00:00 1,6 -9,0 13 7 - - NNO 15 -
14.02.2019 20:00:00 1,4 -10,4 13 7 - - N 15 -
14.02.2019 19:00:00 1,0 -5,9 16 9 - - ENE 20 -
14.02.2019 18:00:00 1,0 -6,8 16 9 - - NE 20 -
14.02.2019 17:00:00 1,0 -6,8 22 12 - - ENE 20 0
14.02.2019 16:00:00 0,8 -5,0 26 14 - - ENE 20 6
14.02.2019 15:00:00 0,0 -2,7 26 14 - - ENE 20 24
14.02.2019 14:00:00 0,0 -1,9 37 20 - - ENE 20 60
14.02.2019 13:00:00 -0,4 -2,6 42 23 - - E 20 60
14.02.2019 12:00:00 -1,0 -6,5 39 21 - - ENE 20 60
14.02.2019 11:00:00 -1,8 -6,7 41 22 64 35 ENE 20 60
14.02.2019 10:00:00 -2,4 -6,7 48 26 - - NNE 20 36
14.02.2019 09:00:00 -3,8 -5,3 42 23 - - NNE 20 60
14.02.2019 08:00:00 -4,6 -5,5 44 24 - - NNE 10 0
14.02.2019 07:00:00 -5,6 -6,7 41 22 - - NNE 15 -
14.02.2019 06:00:00 -5,4 -6,3 46 25 - - NNE 10 -
14.02.2019 05:00:00 -5,6 -6,5 48 26 - - N 10 -
14.02.2019 04:00:00 -6,0 -7,0 41 22 - - N 10 -
14.02.2019 03:00:00 -6,0 -7,0 44 24 - - NNE 10 -
14.02.2019 02:00:00 -6,0 -7,0 42 23 - - NNE 10 -
14.02.2019 01:00:00 -5,8 -6,3 39 21 - - NNE 10 -
14.02.2019 00:00:00 -5,8 -6,9 52 28 - - NNE 10 -
13.02.2019 23:00:00 -5,8 -6,7 52 28 - - N 10 -
13.02.2019 22:00:00 -6,0 -7,0 48 26 - - NNE 10 -
13.02.2019 21:00:00 -6,0 -7,1 54 29 - - NNE 10 -
13.02.2019 20:00:00 -5,8 -8,7 48 26 - - NNE 10 -
13.02.2019 19:00:00 -5,8 -9,2 46 25 - - NNE 10 -
13.02.2019 18:00:00 -5,4 -9,3 48 26 - - NNE 10 -
13.02.2019 17:00:00 -5,4 -9,6 41 22 - - NNE 10 0
13.02.2019 16:00:00 -5,4 -9,0 35 19 - - NNE 10 0
13.02.2019 15:00:00 -5,6 -6,7 35 19 - - N 10 0
13.02.2019 14:00:00 -5,8 -6,9 37 20 - - NNE 10 0
13.02.2019 13:00:00 -5,8 -6,7 48 26 - - NNE 10 0
13.02.2019 12:00:00 -6,0 -7,0 48 26 - - N 10 0
13.02.2019 11:00:00 -6,0 -7,0 42 23 - - NNE - 0
13.02.2019 10:00:00 -6,0 -7,0 46 25 - - NNE - 0
13.02.2019 09:00:00 -7,0 -7,0 46 25 - - NNE - 0
13.02.2019 08:00:00 -7,0 -7,0 46 25 - - NNE - 0
13.02.2019 07:00:00 -6,0 -6,0 46 25 - - NNE - -
13.02.2019 06:00:00 -5,4 -5,4 44 24 - - NNE - -
13.02.2019 05:00:00 -5,6 -5,6 44 24 - - NNE - -
13.02.2019 04:00:00 -5,8 -5,8 42 23 - - NNE - -
13.02.2019 03:00:00 -5,4 -5,4 44 24 - - NNE 10 -
13.02.2019 02:00:00 -5,4 -5,4 46 25 - - NNE 10 -
13.02.2019 01:00:00 -5,4 -5,4 41 22 - - NNE - -
13.02.2019 00:00:00 -5,6 -5,6 46 25 - - NNE - -
12.02.2019 23:00:00 -5,0 -7,9 42 23 - - NNE 10 -
12.02.2019 22:00:00 -5,0 -6,7 41 22 - - NNE 10 -
12.02.2019 21:00:00 -4,4 -6,8 39 21 - - NNE 10 -
12.02.2019 20:00:00 -4,4 -6,1 37 20 - - NNE 10 -
12.02.2019 19:00:00 -4,0 -6,9 37 20 - - NNE 10 -
12.02.2019 18:00:00 -3,0 -6,8 29 16 - - NNE 10 -
12.02.2019 17:00:00 -3,0 -7,2 31 17 - - NNE 10 0
12.02.2019 16:00:00 -2,6 -6,4 31 17 - - NNE 10 18
12.02.2019 15:00:00 -2,6 -2,6 28 15 - - NNE 10 0
12.02.2019 14:00:00 -2,6 -2,6 28 15 - - NNE 10 0
12.02.2019 13:00:00 -2,8 -3,8 31 17 - - NNE 10 0
12.02.2019 12:00:00 -3,0 -4,3 31 17 - - NNE 10 0
12.02.2019 11:00:00 -3,0 -4,0 31 17 - - NNE - 0
12.02.2019 10:00:00 -4,4 -5,4 34 18 - - NNE - 0
12.02.2019 09:00:00 -4,4 -5,5 34 18 - - NNE - 0
12.02.2019 08:00:00 -4,2 -4,7 31 17 - - SO - 0
12.02.2019 07:00:00 -3,0 -3,7 37 20 - - SSO - -
12.02.2019 06:00:00 -3,0 -3,7 46 25 - - SSO - -
12.02.2019 05:00:00 -2,6 -2,6 28 15 - - SSO - -
12.02.2019 04:00:00 -2,0 -3,4 0 0 - - N - -
12.02.2019 03:00:00 -2,0 -3,4 18 10 - - NNE 10 -
12.02.2019 02:00:00 -2,0 -3,1 18 10 - - NNE 10 -
12.02.2019 01:00:00 -2,0 -3,1 18 10 - - NNE - -
12.02.2019 00:00:00 -2,0 -3,3 28 15 - - NNE - -
11.02.2019 23:00:00 -2,0 -3,1 37 20 - - NNE - -
11.02.2019 22:00:00 -2,0 -2,4 37 20 - - NNE - -
11.02.2019 21:00:00 -1,6 -2,3 37 20 - - NNE - -
11.02.2019 20:00:00 -1,0 -1,7 37 20 - - NNE - -
11.02.2019 19:00:00 -0,4 -1,1 46 25 - - NNE - -
11.02.2019 18:00:00 0,2 -0,8 55 30 - - NNE - -
11.02.2019 17:00:00 0,4 -0,3 55 30 - - NNE - 0
11.02.2019 16:00:00 1,0 1,0 35 19 - - NNE - 0
11.02.2019 15:00:00 1,4 1,4 34 18 - - NNE - 0
11.02.2019 14:00:00 1,8 0,9 37 20 - - NNE - 0
11.02.2019 13:00:00 1,8 1,8 37 20 - - ONO - 0
11.02.2019 12:00:00 2,2 2,2 29 16 - - OSO - 0
11.02.2019 11:00:00 2,4 2,4 35 19 - - ONO - 0
11.02.2019 10:00:00 1,4 1,4 37 20 - - O - 0
11.02.2019 09:00:00 1,4 1,4 37 20 - - ONO - 0
11.02.2019 08:00:00 1,2 1,2 34 18 - - ONO - 0
11.02.2019 07:00:00 1,6 0,6 24 13 - - O 10 -
11.02.2019 06:00:00 1,6 -0,3 35 19 - - ONO 10 -
11.02.2019 05:00:00 2,0 -1,4 28 15 - - O 10 -
11.02.2019 04:00:00 2,0 -2,5 46 25 - - ONO 10 -
11.02.2019 03:00:00 2,0 -4,5 37 20 - - O 10 -
11.02.2019 02:00:00 2,0 -4,3 29 16 - - N 10 -
11.02.2019 01:00:00 2,0 -8,1 18 10 - - NO 10 -
11.02.2019 00:00:00 1,6 -6,9 22 12 - - NNO 10 -
10.02.2019 23:00:00 2,8 -7,1 31 17 - - OSO 10 -
10.02.2019 22:00:00 2,4 -7,2 28 15 - - O 15 -
10.02.2019 21:00:00 1,8 -3,3 26 14 - - O 15 -
10.02.2019 20:00:00 2,2 -3,5 29 16 - - O 15 -
10.02.2019 19:00:00 2,4 -5,3 24 13 - - O 20 -
10.02.2019 18:00:00 4,0 -3,1 22 12 - - O 20 42
10.02.2019 17:00:00 4,0 -3,7 9 5 - - SO 20 60
10.02.2019 16:00:00 4,0 -1,8 16 9 - - OSO 25 60
10.02.2019 15:00:00 4,0 -2,2 22 12 - - O 25 60
10.02.2019 14:00:00 4,4 -3,4 9 5 - - OSO 30 60
10.02.2019 13:00:00 4,4 -1,0 15 8 - - SO 25 60
10.02.2019 12:00:00 4,8 -0,8 13 7 - - OSO 25 60
10.02.2019 11:00:00 5,2 -8,3 11 6 - - OSO 25 60
10.02.2019 10:00:00 4,8 -10,1 9 5 - - O 20 60
10.02.2019 09:00:00 4,0 -10,1 11 6 - - OSO 20 60
10.02.2019 08:00:00 2,4 -8,9 0 0 - - N 20 60
10.02.2019 07:00:00 2,2 -11,0 5 3 - - OSO 15 0

tt = Temperatura
td = dewpoint
ff = velocità del vento
fx = gusts
dd = direzione del vento
vv = visibility
sd = ore di luce

Stazioni seguenti

WeatherPro
AMSI
MeteoEarth